Air Resources Laboratory banner image
Air Resources Laboratory web site National Oceanic and Atmospheric Administration (NOAA)

ny roundup


Office: ALY

ASUS41 KALY 210310
RWRALY

NEW YORK STATE HOURLY WEATHER ROUNDUP
NATIONAL WEATHER SERVICE ALBANY NY
1000 PM EST TUE FEB 20 2018

NOTE: "FAIR" INDICATES FEW OR NO CLOUDS BELOW 12,000 FEET WITH NO
SIGNIFICANT WEATHER AND/OR NO OBSTRUCTIONS TO VISIBILITY.

NYZ032-033-038>043-046>054-057>066-NYZ062>081-082-084-210400-
EAST


CITY           SKY/WX    TMP DP  RH WIND       PRES   REMARKS
ALBANY         MOCLDY    59  49  69 S9        30.22S
GLENS FALLS    CLOUDY    39  38  96 NW3       30.21R
POUGHKEEPSIE   FAIR      46  44  93 CALM      30.28S
NEWBURGH       CLEAR     50  50 100 NW5       30.30F
MONTGOMERY     FOG       42  41  96 N3        30.28S VSB 1/4
WHITE PLAINS   FAIR      51  50  96 S3        30.31S
ISLIP          FOG       48  48 100 SW8       30.35R VSB 1/4
NEW YORK CITY  MOCLDY    56  49  77 S6        30.32R
CENTRAL PARK   FAIR      65  56  72 VRB7      30.34R
$$

NYZ005>009-017-018-044>046-055-056-210400-
CENTRAL


CITY           SKY/WX    TMP DP  RH WIND       PRES   REMARKS
FULTON         CLOUDY    52  51  97 CALM      30.12F
SYRACUSE       CLOUDY    63  54  72 S7        30.13S
ROME           CLOUDY    46  45  96 CALM      30.18S
ELMIRA         FAIR      59  52  77 W5        30.19F
BINGHAMTON     FAIR      59  51  75 S9G20     30.23S
MONTICELLO     FAIR      48  48 100 CALM      30.31S
$$

NYZ026>034-041>043-087-210400-
NORTH


CITY           SKY/WX    TMP DP  RH WIND       PRES   REMARKS
WATERTOWN      CLOUDY    61  55  81 S7        30.09F
FORT DRUM      NOT AVBL
OGDENSBURG     FOG       51  50  98 S5        30.09F VSB 1/4
MASSENA        LGT RAIN  39  39 100 E3        30.09S VSB 3/4
SARANAC LAKE   CLOUDY    52  52 100 SW6       30.14R
PLATTSBURGH    CLOUDY    42  41  96 S3        30.12R FOG
$$

NYZ001>004-010>016-019>021-085-210400-
WEST


CITY           SKY/WX    TMP DP  RH WIND       PRES   REMARKS
NIAGARA FALLS  FAIR      63  53  70 S12       30.03F
BUFFALO        CLOUDY    66  55  67 S16       30.05F
DUNKIRK        FAIR      67  54  63 S20G26    30.07S
JAMESTOWN        N/A    N/A N/A N/A MISG        N/A
WELLSVILLE     FAIR      61  53  75 S8        30.20S
ROCHESTER      CLOUDY    66  56  70 S7        30.08F
PENN YAN       CLOUDY    62  50  64 SW12      30.16S
$$

             KEY
       WCI = WIND CHILL INDEX
       VSB = VISIBILITY
       HX  = HEAT INDEX
$$




Office: OKX ASUS41 KOKX 210305 RWROKX Regional Weather Roundup National Weather Service New York NY 1000 PM EST TUE FEB 20 2018 Note: "FAIR" indicates few or no clouds below 12,000 feet with no significant weather and/or obstructions to visibility. NYZ071-072-176-178-NJZ106-104-210400- New York City Metro Area CITY SKY/WX TMP DP RH WIND PRES REMARKS Central Park FAIR 65 56 72 VRB7 30.34R Bronx Bot Gard N/A 54 48 82 SW1 30.32F Bronx Lehman C N/A 57 50 77 SE3 N/A LaGuardia Arpt MOCLDY 56 49 77 S6 30.32R Queens College N/A 52 48 87 S5 N/A Kennedy Intl FAIR 48 47 96 CALM 30.35R Breezy Point N/A 43 N/A N/A S7 N/A Brooklyn Coll N/A 52 46 82 E2 N/A Staten Island N/A 61 55 82 S6 N/A Newark/Liberty MOCLDY 60 54 80 S9 30.32R Teterboro FAIR 55 51 86 SW5 30.30S $$ NYZ177-179-078>081-210400- Long Island New York CITY SKY/WX TMP DP RH WIND PRES REMARKS Jones Beach N/A 43 N/A N/A S6 N/A Wantagh N/A 46 45 93 S6 N/A Hempstead N/A 48 46 93 SE3 30.38R Matinecock Pt N/A 55 N/A N/A SW5 N/A Farmingdale FAIR 48 47 96 SW7 30.35R MacArthur/ISP FOG 48 48 100 SW8 30.35R VSB 1/4 Shirley FOG 48 48 100 S9 30.36R VSB 3/4 Mt Sinai Harb N/A N/A N/A N/A S9 N/A Westhampton FOG 47 47 100 SW8 30.37R VSB 1/2 East Hampton FOG 47 47 98 SW8 30.36R VSB 1/2 Southold N/A 48 48 100 S7 N/A Montauk N/A 49 49 100 SW12G21 30.36R $$ NYZ052-065-067-210400- Hudson Valley CITY SKY/WX TMP DP RH WIND PRES REMARKS White Plains FAIR 51 50 96 S3 30.31S Larchmont Harb N/A 48 N/A N/A S7 N/A Croton On Huds N/A 50 N/A N/A MISG N/A Somers N/A 59 54 82 S6 N/A Brewster N/A 52 50 93 CALM N/A Newburgh CLEAR 50 50 100 NW5 30.30F Montgomery FOG 42 41 96 N3 30.28S VSB 1/4 Otisville N/A 52 48 87 SW3 N/A Warwick N/A 45 45 100 E2 N/A Suffern N/A 57 54 88 S2 N/A Poughkeepsie FAIR 46 44 93 CALM 30.28S Albany MOCLDY 59 49 69 S9 30.22S $$ NJZ001-105-106-008-010-013-015-019>022-104-210400- New Jersey CITY SKY/WX TMP DP RH WIND PRES REMARKS Newark/Liberty MOCLDY 60 54 80 S9 30.32R Teterboro FAIR 55 51 86 SW5 30.30S Caldwell FAIR 50 48 93 CALM 30.32R Somerville MOCLDY 48 47 96 CALM 30.30S FOG Linden FAIR 61 55 79 CALM 30.32S Perth Amboy N/A 57 N/A N/A S3 N/A Sussex MOCLDY 45 44 97 SW3 30.31S FOG Andover N/A 40 39 97 CALM 30.31S Trenton FAIR 62 58 86 SW12 30.32S Millville FAIR 58 57 97 VRB3 30.37S Atlantic City FAIR 60 59 96 S12 30.36F Wrightstown FAIR 62 58 90 SW8 30.31 Toms River FAIR 58 56 93 SW8 30.36S Belmar FAIR 61 57 87 S7 30.35S $$ PAZ047>061-062-071-210400- Eastern Pennsylvania CITY SKY/WX TMP DP RH WIND PRES REMARKS Philadelphia FAIR 60 57 89 SW5 30.35R Allentown FOG 47 45 93 NW3 30.31S VSB 1/4 Scranton FAIR 59 54 83 S6 30.28S $$ CTZ002-004>006-009-010-012-RIZ004-006-007-MAZ004-011-015-210400- Southern New England In CT CITY SKY/WX TMP DP RH WIND PRES REMARKS Bradley Intl FAIR 56 51 84 S14 30.28S Hartford FAIR 55 51 86 S8 30.30S Danbury FAIR 45 44 97 CALM 30.32R Wtrbury/Oxford FAIR 57 53 86 SW6 30.32R Norwalk Harbor N/A 50 N/A N/A S3 N/A Bridgeport FAIR 47 45 93 SW6 30.33R FOG Meriden FAIR 50 48 93 SE6 30.31S New Haven FAIR 45 43 93 CALM 30.32S FOG Chester FAIR 50 50 100 SW5 30.33S FOG Groton FOG 45 43 93 S3 30.35R VSB 1/2 Willimantic FAIR 53 50 89 S5 30.32S In RI CITY SKY/WX TMP DP RH WIND PRES REMARKS Providence FAIR 53 51 93 SW8 30.31S Block Island LGT RAIN 45 45 100 SW16 30.36S VSB 1/4 Westerly FOG 45 45 100 CALM 30.36R VSB 1/4 In MA CITY SKY/WX TMP DP RH WIND PRES REMARKS Boston FAIR 43 42 97 E6 30.27F Worcester FAIR 56 50 80 SW14 30.27S Westfield FAIR 57 52 83 SE7 30.26S Provincetown FOG 42 42 100 S13 30.31R VSB 3/4 Nantucket FOG 45 45 100 SW17 30.36R VSB 1/4 $$ ANZ330-335-338-340-345-350-353-355-210400- Coastal Marine Observations STATION/POSITION TIME SKY/WX TEMP WIND PRES VSBY WAVE AIR SEA DIR/SP/G HT/PER (UTC) (F) (DEG/KT/KT) (MB) (MI) (FT/S) NY Harb Entrance 0250 44 41 190/ 14/ 16 1027.0 4/11 20 S Fire Island 0250 46 42 220/ 16/ 17 1028.0 5/ 6 15 E Barnegat Li 0230 41 N/A 5/12 Hudson Canyon 0250 51 47 210/ 16/ 19 1029.2 4/11 Kings Point 0230 51 39 210/ 7/ 8 1027.8 Execution Rocks NOT AVBL Western LI Sound NOT AVBL Central LI Sound NOT AVBL Robbins Reef 0230 58 170/ 10/ 11 1027.3 $$ >>>>>>>>>>>>>>>>>>>>>>>>>>>> KEY <<<<<<<<<<<<<<<<<<<<<<<<<<< > < > SKY/WX - Sky Condition/Present Weather < > TMP - Temperature in Fahrenheit < > DP - Dew Point in Fahrenheit < > RH - Relative Humidity in Percent < > WIND - Direction (from) and Speed in MPH < > PRES - Mean Sea Level Pressure (inches of Hg) < > WCI - Wind Chill Index < > VSB - Visibility in Miles < > HX - Heat Index < > TC - Temperature in Celsius < > VRB - Varibale Wind Direction < > < >>>>>>>>>>>>>>>>>>>>>>>>>>>> KEY <<<<<<<<<<<<<<<<<<<<<<<<<<<
Office: BUF ASUS61 KBUF 210003 RTPBUF MAX/MIN TEMPERATURE AND PRECIPITATION TABLE FOR WESTERN NY AND THE EASTERN LAKE ONTARIO REGION NATIONAL WEATHER SERVICE BUFFALO, NY 703 PM EST Tue Feb 20 2018 Values represent: High temperature over the last 18 hours Low temperature over the last 18 hours Precipitation over the last 24 hours .BR BUF 0220 ES DH19/TAIRZS/TAIRZI/PPDRZZ/SFDRZZ/SDIRZZ : : Official Climate Stations : Max Min 24 HR Snow Snow : Location Temp Temp Precip Fall Depth BUF :Buffalo Airport : 66 / 51 / 1.01 / 0 / 0 ROC :Rochester Airport : 71 / 54 / 0.39 / 0 / 0 ART :Watertown Airport : 60 / 46 / 0.43 / / : : Unofficial Supplemental Sites : IAG :Niagara Falls Airport : 64 / 53 / 0.56 / / DKK :Dunkirk Airport : 71 / 58 / 0.22 / / ELZ :Wellsville Airport : 70 / 51 / 0.10 / / DSV :Dansville Airport : 76 / 50 / 0.04 / / FZY :Oswego Airport : 55 / 44 / 0.46 / / GTB :Fort Drum : 55 / 40 / 0.90 / / .END These data are preliminary and have not undergone final quality control by the National Centers for Environmental Information (formerly National Climatic Data Center - NCDC). Therefore... these data are subject to revision. Final and certified climate data can be accessed at www.ncdc.noaa.gov. $$
Office: BOX ASUS41 KBOX 210310 RWRBOX REGIONAL WEATHER ROUNDUP NATIONAL WEATHER SERVICE TAUNTON MA 1000 PM EST TUE FEB 20 2018 NOTE: "FAIR" INDICATES FEW OR NO CLOUDS BELOW 12,000 FEET WITH NO SIGNIFICANT WEATHER AND/OR OBSTRUCTIONS TO VISIBILITY. MAZALL-210400- EASTERN MASSACHUSETTS CITY SKY/WX TMP DP RH WIND PRES REMARKS BOSTON FAIR 43 42 97 E6 30.27F BEVERLY MOCLDY 40 40 100 CALM 30.26S LAWRENCE FOG 43 40 89 CALM 30.29R VSB 1/2 BEDFORD FAIR 49 45 86 CALM 30.25S BLUE HILL N/A 56 51 84 SW18 30.26S NORWOOD FAIR 57 51 80 S5 30.27S MARSHFIELD FAIR 55 52 88 SW9G17 30.28S PLYMOUTH CLOUDY 46 45 96 S5 30.31S FOG TAUNTON FAIR 51 49 92 S7 30.30S NEW BEDFORD CLOUDY 47 47 100 SW9 30.31S FOG $$ MAZALL-210400- CAPE COD AND THE ISLANDS CITY SKY/WX TMP DP RH WIND PRES REMARKS FALMOUTH FOG 46 46 100 SW16 30.35 VSB 1/4 HYANNIS N/A N/A N/A N/A MISG 30.30R CHATHAM FOG 45 45 100 SW10G22 30.34R VSB 3/4 PROVINCETOWN FOG 42 42 100 S13 30.31R VSB 3/4 NANTUCKET FOG 45 45 100 SW17 30.36R VSB 1/4 MARTHAS VNYRD FOG N/A N/A N/A SW13G21 30.35S VSB 1/2 $$ MAZALL-210400- CENTRAL AND WESTERN MASSACHUSETTS CITY SKY/WX TMP DP RH WIND PRES REMARKS WORCESTER FAIR 56 50 80 SW14 30.27S FITCHBURG FAIR 63 53 70 SW8 30.26S ORANGE FAIR 38 38 100 CALM 30.27S SPRINGFIELD PTCLDY 54 50 85 S8 30.26S WESTFIELD FAIR 57 52 83 SE7 30.26S NORTH ADAMS FAIR 45 43 93 CALM 30.24S PITTSFIELD FAIR 61 51 70 SW10G21 30.24F $$ RIZALL-210400- RHODE ISLAND CITY SKY/WX TMP DP RH WIND PRES REMARKS PROVIDENCE FAIR 53 51 93 SW8 30.31S NEWPORT FOG 45 45 100 S5 30.33R VSB 1/4 BLOCK ISLAND LGT RAIN 45 45 100 SW16 30.36S VSB 1/4 SMITHFIELD FAIR 59 52 77 SW9G16 30.29S WESTERLY FOG 45 45 100 CALM 30.36R VSB 1/4 $$ CTZALL-210400- CONNECTICUT CITY SKY/WX TMP DP RH WIND PRES REMARKS BRADLEY INTL FAIR 56 51 84 S14 30.28S HARTFORD FAIR 55 51 86 S8 30.30S BRIDGEPORT FAIR 47 45 93 SW6 30.33R FOG DANBURY FAIR 45 44 97 CALM 30.32R GROTON FOG 45 43 93 S3 30.34S VSB 1/4 NEW HAVEN FAIR 45 43 93 CALM 30.32S FOG CHESTER FAIR 50 50 100 SW5 30.33S FOG MERIDEN FAIR 50 48 93 SE6 30.31S WILLIMANTIC FAIR 53 50 89 S5 30.32S OXFORD FAIR 57 53 86 SW6 30.32R $$ MEZ002-015-021-024-NHZ003-005-008-011-012-014-VTZ005-008-210400- NORTHERN NEW ENGLAND CITY SKY/WX TMP DP RH WIND PRES REMARKS PORTLAND ME CLOUDY 39 39 100 NW3 30.28S FOG BANGOR ME CLOUDY 37 37 100 CALM 30.28S FOG CONCORD NH CLOUDY 44 43 96 E3 30.27R FOG MANCHESTER NH CLOUDY 43 42 97 CALM 30.26R NASHUA NH FAIR 42 42 100 E3 30.27R PORTSMOUTH NH FOG 40 40 99 CALM 30.27R VSB 1/8 JAFFREY NH FAIR 41 32 70 CALM 30.26R KEENE NH FOG 36 35 96 CALM 30.26R VSB 1 BURLINGTON VT CLOUDY 58 49 72 S17G23 30.13R MT. WASHINGTON FOG 43 43 100 W61G72 N/A VSB 0 WCI 29 $$ NYZ052-076-210400- EASTERN NEW YORK CITY SKY/WX TMP DP RH WIND PRES REMARKS ALBANY MOCLDY 59 49 69 S9 30.22S NEW YORK CITY MOCLDY 56 49 77 S6 30.32R $$ ANZALL-210400- MARINE OBSERVATIONS STATION/POSITION TIME TEMP WIND PRES VSBY WAVE AIR SEA DIR/SP/G HT/PER (UTC) (F) (DEG/KT/KT) (MB) (MI) (FT/S) BOSTON BUOY 0250 41 41 110/ 4/ 6 1024.2F 3/10 BUZZARDS BAY NOT AVBL NANTUCKET SOUND 0250 41 39 240/ 14/ 16 1027.3R 2/ 3 MASS BAY-STELLWA 0204 39 39 1024.4R 5/11 ISLE OF SHOALS NOT AVBL S OF BLOCK IS 0243 40 N/A 5/ 7 $$ ......................KEY......................... SKY/WX - SKY CONDITION/PRESENT WEATHER TMP - TEMPERATURE IN FAHRENHEIT DWPT - DEWPOINT IN FAHRENHEIT RH - RELATIVE HUMIDITY IN PERCENT WIND - DIRECTION AND SPEED IN MPH PRES - MEAN SEA LEVEL PRESSURE IN INCHES OF HG WCI - WIND CHILL INDEX VSB - VISIBILITY IN MILES HX - HEAT INDEX TC - TEMPERATURE IN CELSIUS VRB - VARIABLE WIND DIRECTION N/A - NOT AVAILABLE
Office: GYX ASUS41 KGYX 210305 RWRGYX WEATHER ROUNDUP FOR MAINE AND NEW HAMPSHIRE NATIONAL WEATHER SERVICE GRAY ME 1000 PM EST TUE FEB 20 2018 MEZ002-005-006-010-012-015-018-020-021-024-026-027-029-210400- MAINE CITY SKY/WX TMP DP RH WIND PRES REMARKS PORTLAND CLOUDY 39 39 100 NW3 30.28S FOG SANFORD FOG 39 39 100 CALM 30.28S VSB 1/4 BAR HARBOR FOG 38 38 100 E6 30.28F VSB 1/4 WISCASSET FOG 35 35 100 CALM 30.28F VSB 1/2 ROCKLAND FOG 39 39 100 NE8 30.27F VSB 1/2 FRYEBURG CLOUDY 39 39 100 CALM 30.27S LEWISTONAUBURN LGT RAIN 36 36 100 CALM 30.28R VSB 1/2 AUGUSTA FOG 36 36 100 W3 30.27S VSB 1/4 WATERVILLE FOG 36 36 100 CALM 30.22S VSB 1/4 BANGOR CLOUDY 37 37 100 CALM 30.28S FOG GREENVILLE N/A 35 35 100 SE10 30.19S MILLINOCKET LGT RAIN 36 36 100 E5 30.28F FOG HOULTON CLOUDY 32 31 96 SE9G16 30.28F FOG PRESQUE ISLE CLOUDY 31 29 92 SE13 30.28S FRENCHVILLE CLOUDY 28 27 96 SE15 30.22F WCI 16 CARIBOU CLOUDY 32 28 85 SE13 30.26S $$ NHZ002-005-008-009-011-012-014-210400- NEW HAMPSHIRE CITY SKY/WX TMP DP RH WIND PRES REMARKS PORTSMOUTH FOG 40 40 99 CALM 30.27R VSB 1/8 ROCHESTER FOG 39 39 100 NW3 30.27R VSB 1/4 NASHUA FAIR 42 42 100 E3 30.27R MANCHESTER CLOUDY 43 42 97 CALM 30.26R CONCORD CLOUDY 44 43 96 SE5 30.27R FOG LACONIA MOCLDY 37 36 96 CALM 30.26R PLYMOUTH CLOUDY 36 34 91 CALM 30.26S BERLIN FOG 36 36 100 CALM 30.19F VSB 1 WHITEFIELD CLOUDY 36 36 100 CALM 30.19S FOG JAFFREY FAIR 41 32 70 CALM 30.26R KEENE FOG 36 35 96 CALM 30.26R VSB 1 LEBANON FAIR 39 37 92 CALM 30.21S MT WASHINGTON FOG 43 43 100 W61G72 N/A VSB 0 $$ VTZ005-007-008-210400- VERMONT CITY SKY/WX TMP DP RH WIND PRES REMARKS ST JOHNSBURY N/A 39 39 100 MISG 30.17S MONTPELIER CLOUDY 52 49 89 S12 30.20S BURLINGTON CLOUDY 58 49 72 S17G23 30.13R $$ MAZ007-012-024-CTZ003-RIZ002-NYZ038-NYZ072-210400- SOUTHERN NEW ENGLAND AND NY CITY SKY/WX TMP DP RH WIND PRES REMARKS BOSTON FAIR 43 42 97 E6 30.27F WORCESTER FAIR 56 50 80 SW14 30.27S NANTUCKET FOG 45 45 100 SW17 30.36R VSB 1/4 PROVIDENCE FAIR 53 51 93 SW8 30.31S HARTFORD FAIR 56 51 84 S14 30.28S ALBANY MOCLDY 59 49 69 S9 30.22S NEW YORK CITY MOCLDY 56 49 77 S6 30.32R $$ ANZ081-ANZ082-ANZ150-NHZ014-MEZ023>029-210400- COASTAL MARINE OBSERVATIONS STATION/POSITION TIME TEMP WIND PRES WAVE AIR SEA DIR/SP/G HT/PER (UTC) (F) (DEG/KT/KT) (MB) (FT/S) JEFFREYS LEDGE 0236 42 N/A 4/11 GEORGES BANK BUO 0150 53 62 1024.8 12/ 8 $$ .............KEY.............. WCI - WIND CHILL TC - TEMPERATURE IN CELSIUS VSB - VISIBILITY IN MILES HX - HEAT INDEX FAIR- INDICATES FEW OR NO CLOUDS BELOW 12,000 FT, WITH NO SIGNIFICANT WEATHER AND/OR OBSTRUCTIONS TO VISIBILITY. ASUS41 KGYX 210310 RWRGYX WEATHER ROUNDUP FOR MAINE AND NEW HAMPSHIRE NATIONAL WEATHER SERVICE GRAY ME 1000 PM EST TUE FEB 20 2018 MEZ002-005-006-010-012-015-018-020-021-024-026-027-029-210400- MAINE CITY SKY/WX TMP DP RH WIND PRES REMARKS PORTLAND CLOUDY 39 39 100 NW3 30.28S FOG SANFORD FOG 39 39 100 CALM 30.28S VSB 1/4 BAR HARBOR FOG 38 38 100 E6 30.28F VSB 1/4 WISCASSET FOG 35 35 100 CALM 30.28F VSB 1/2 ROCKLAND FOG 39 39 100 NE8 30.27F VSB 1/2 FRYEBURG CLOUDY 39 39 100 CALM 30.27S LEWISTONAUBURN LGT RAIN 36 36 100 CALM 30.28R VSB 1/2 AUGUSTA FOG 36 36 100 W3 30.27S VSB 1/4 WATERVILLE FOG 36 36 100 CALM 30.22S VSB 1/4 BANGOR CLOUDY 37 37 100 CALM 30.28S FOG GREENVILLE N/A 35 35 100 SE10 30.19S MILLINOCKET LGT RAIN 36 36 100 E5 30.28F FOG HOULTON CLOUDY 32 31 96 SE9G16 30.28F FOG PRESQUE ISLE CLOUDY 31 29 92 SE13 30.28S FRENCHVILLE CLOUDY 28 27 96 SE15 30.22F WCI 16 CARIBOU CLOUDY 32 28 85 SE13 30.26S $$ NHZ002-005-008-009-011-012-014-210400- NEW HAMPSHIRE CITY SKY/WX TMP DP RH WIND PRES REMARKS PORTSMOUTH FOG 40 40 99 CALM 30.27R VSB 1/8 ROCHESTER FOG 39 39 100 NW3 30.27R VSB 1/4 NASHUA FAIR 42 42 100 E3 30.27R MANCHESTER CLOUDY 43 42 97 CALM 30.26R CONCORD CLOUDY 44 43 96 E3 30.27R FOG LACONIA MOCLDY 37 36 96 CALM 30.26R PLYMOUTH CLOUDY 36 34 91 CALM 30.26S BERLIN FOG 36 36 100 CALM 30.19F VSB 1 WHITEFIELD CLOUDY 37 37 100 CALM 30.18F FOG JAFFREY FAIR 41 32 70 CALM 30.26R KEENE FOG 36 35 96 CALM 30.26R VSB 1 LEBANON FAIR 39 37 92 CALM 30.21S MT WASHINGTON FOG 43 43 100 W61G72 N/A VSB 0 $$ VTZ005-007-008-210400- VERMONT CITY SKY/WX TMP DP RH WIND PRES REMARKS ST JOHNSBURY N/A 39 39 100 MISG 30.17S MONTPELIER CLOUDY 52 49 89 S12 30.20S BURLINGTON CLOUDY 58 49 72 S17G23 30.13R $$ MAZ007-012-024-CTZ003-RIZ002-NYZ038-NYZ072-210400- SOUTHERN NEW ENGLAND AND NY CITY SKY/WX TMP DP RH WIND PRES REMARKS BOSTON FAIR 43 42 97 E6 30.27F WORCESTER FAIR 56 50 80 SW14 30.27S NANTUCKET FOG 45 45 100 SW17 30.36R VSB 1/4 PROVIDENCE FAIR 53 51 93 SW8 30.31S HARTFORD FAIR 56 51 84 S14 30.28S ALBANY MOCLDY 59 49 69 S9 30.22S NEW YORK CITY MOCLDY 56 49 77 S6 30.32R $$ ANZ081-ANZ082-ANZ150-NHZ014-MEZ023>029-210400- COASTAL MARINE OBSERVATIONS STATION/POSITION TIME TEMP WIND PRES WAVE AIR SEA DIR/SP/G HT/PER (UTC) (F) (DEG/KT/KT) (MB) (FT/S) JEFFREYS LEDGE 0236 42 N/A 4/11 GEORGES BANK BUO 0150 53 62 1024.8 12/ 8 $$ .............KEY.............. WCI - WIND CHILL TC - TEMPERATURE IN CELSIUS VSB - VISIBILITY IN MILES HX - HEAT INDEX FAIR- INDICATES FEW OR NO CLOUDS BELOW 12,000 FT, WITH NO SIGNIFICANT WEATHER AND/OR OBSTRUCTIONS TO VISIBILITY.
Office: PHI ASUS41 KPHI 210313 RWRPHI REGIONAL WEATHER ROUNDUP NATIONAL WEATHER SERVICE MOUNT HOLLY NJ 1000 PM EST TUE FEB 20 2018 NOTE: "FAIR" INDICATES FEW OR NO CLOUDS BELOW 12,000 FEET WITH NO SIGNIFICANT WEATHER AND/OR OBSTRUCTIONS TO VISIBILITY. * = STATION DOES NOT REPORT PRECIPITATION (E.G. RAIN, SNOW, ETC.) OR FOG. NJZ015>026-210400- SOUTHERN NEW JERSEY CITY SKY/WX TMP DP RH WIND PRES REMARKS POMONA FAIR 60 59 96 S12 30.36F WILDWOOD* CLOUDY 60 59 96 S13 30.39S MILLVILLE FAIR 58 57 97 VRB3 30.37S WRIGHTSTOWN FAIR 62 58 90 SW8 30.31S MOUNT HOLLY FAIR 61 59 93 S5 30.34S TRENTON FAIR 62 58 86 SW12 30.32S $$ NJZ001>014-210400- NORTHERN NEW JERSEY CITY SKY/WX TMP DP RH WIND PRES REMARKS SUSSEX FOG 43 43 100 CALM 30.31S VSB 3/4 ANDOVER* N/A 40 39 97 CALM 30.31S MORRISTOWN CLEAR 46 46 100 CALM 30.32R NEWARK MOCLDY 60 54 80 S9 30.32R TETERBORO FAIR 55 51 86 SW5 30.30S CALDWELL FAIR 50 48 93 CALM 30.32R SOMERVILLE FOG 47 47 100 CALM 30.30S VSB 1/2 ALLAIRE* FAIR 61 57 87 S7 30.35S TOMS RIVER* FAIR 58 56 93 SW8 30.36S $$ PAZ043-044-047-054-055-060>062-066>071-210400- EASTERN PENNSYLVANIA CITY SKY/WX TMP DP RH WIND PRES REMARKS PHILADELPHIA FAIR 60 57 89 SW5 30.35R NORTH PHILA FAIR 64 58 80 S6 30.35R BLUE BELL* FAIR 61 59 94 SW5 30.34S DOYLESTOWN FAIR 62 58 86 S6 30.32S QUAKERTOWN* CLEAR 61 59 94 S6 30.32F PERKASIE* FAIR 59 59 100 SW6 30.33S POTTSTOWN FAIR 62 59 90 S5 30.34R LANCASTER FAIR 59 56 89 SE7 30.30S COATESVILLE FAIR 61 N/A N/A S9 30.34S READING FAIR 62 59 90 S8 30.30S ALLENTOWN FOG 47 45 93 NW3 30.31S VSB 1/4 MOUNT POCONO FAIR 57 53 86 S9 30.31F HAZLETON FAIR 59 54 82 SE8 30.33R LEHIGHTON FOG 39 39 100 CALM 30.32F VSB<1/4 WILKES BARRE FAIR 59 54 83 S6 30.28S $$ DEZALL-MDZ008-012-015-019-020-210400- DELAWARE AND EASTERN MARYLAND CITY SKY/WX TMP DP RH WIND PRES REMARKS WILMINGTON FAIR 55 54 96 S7 30.34S FOG DOVER FAIR 60 59 97 S9 30.36S GEORGETOWN MOCLDY 64 60 87 S10 30.39S EASTON PTCLDY 61 59 94 S10 30.40S ABERDEEN FAIR N/A N/A N/A S10 30.33S PATUXENT FOG 52 52 100 SE7 30.38 VSB 1/2 OCEAN CITY FOG 55 55 100 SW8 30.42S VSB 1/2 WALLOPS ISLAND FOG 55 55 100 S9 30.42S VSB 1/2 CAMBRIDGE CLOUDY 59 59 100 S7 30.38F FOG SALISBURY CLOUDY 63 62 97 S7 30.40S $$ PAZ001-021-NYZ056-072-MDZ011-DCZ001-210400- OTHER NEARBY LOCATIONS CITY SKY/WX TMP DP RH WIND PRES REMARKS HARRISBURG FAIR 61 51 70 SE7 30.28R STATE COLLEGE CLEAR 59 52 77 CALM 30.24S WILLIAMSPORT FOG 43 43 100 CALM 30.25R VSB 1/4 BINGHAMTON FAIR 59 51 75 S9G20 30.23S NEW YORK CITY FAIR 65 56 72 VRB7 30.34R BALTIMORE FAIR 58 57 97 SE5 30.32S WASHINGTON DC MOCLDY 62 55 77 S10 30.34S $$